Location: Squamish
(49.7000°N, 123.1500°W)
Time: 22:53:27
(UTC-08:00)

Daily predictions for brighter satellites

Satellite Brightness Start Highest point End
(mag) Time Altitude Azimuth Time Altitude Azimuth Time Altitude Azimuth
EO 1 Del DPAF 3.6 17:12:35 10° N 17:16:26 69° WNW 17:20:16 10° SSW
Cosmos 1484 Rocket 3.7 17:14:26 10° SE 17:17:50 29° ENE 17:21:17 10° N
Cosmos 1844 4.2 17:13:41 10° NNW 17:19:05 39° NE 17:24:29 10° ESE
Cosmos 1408 Rocket 4.2 17:15:34 10° SSE 17:19:37 36° E 17:23:42 10° NNE
CZ-4 R/B 1.2 17:16:20 10° SSE 17:20:11 77° ENE 17:24:06 10° N
USA 116 3.9 17:19:44 10° NNE 17:22:55 35° E 17:25:52 10° SSE
Lacrosse 5 rocket 2.1 17:19:35 10° NW 17:22:56 31° NNE 17:26:23 10° ENE
CENTAUR R/B 3.5 17:19:37 10° S 17:24:50 30° ESE 17:30:37 10° NE
Cosmos 1570 Rocket 4.3 17:21:21 10° SSW 17:26:42 74° WNW 17:32:04 10° NNE
Cosmos 1674 3.8 17:24:21 10° SE 17:27:32 26° E 17:30:46 10° NNE
Okean 3 Rocket 3.6 17:24:09 10° S 17:28:36 90° E 17:33:08 10° N
Tsikada Rocket 4.3 17:23:54 10° SSE 17:29:58 49° E 17:36:07 10° NNE
Cosmos 1174 3.1 17:27:27 10° SW 17:30:25 85° NW 17:33:38 10° NE
COSMOS 2428 3.6 17:26:14 10° SSE 17:31:09 31° ESE 17:36:04 10° NE
MOS 1 4.3 17:25:35 10° SSE 17:31:14 83° ENE 17:36:57 10° NNW
Cosmos 2285 Rocket 4.3 17:25:27 10° SSW 17:31:45 74° WNW 17:38:09 10° NNE
Abrixas rocket 4.3 17:29:19 10° W 17:32:13 28° SSW 17:35:06 10° SE
ALOS 3.9 17:33:27 10° E 17:35:48 14° NE 17:38:10 10° NNE
Cosmos 1300 4.0 17:33:17 10° NNE 17:36:07 19° ENE 17:38:57 10° ESE
Meteor 2-2 Rocket 4.4 17:32:42 10° N 17:38:11 48° ENE 17:43:36 10° SE
Cosmos 1743 Rocket 4.4 17:36:19 10° SSE 17:40:12 30° E 17:44:07 10° NNE
Cosmos 2237 Rocket 3.9 17:38:14 10° ESE 17:40:35 13° E 17:42:11 11° ENE
CZ-4 R/B 4.4 17:36:55 10° SSE 17:41:03 71° ENE 17:45:12 10° N
Lacrosse 5 1.9 17:36:58 10° SW 17:42:06 88° SE 17:46:46 13° ENE
AQUARIUS 4.4 17:37:40 10° S 17:42:10 78° WSW 17:46:42 10° NNW
CZ-2C R/B 2.8 17:38:20 10° S 17:43:21 70° WSW 17:48:14 10° NNW
Cosmos 1328 Rocket 3.8 17:39:08 10° N 17:43:28 49° ENE 17:47:46 10° SSE
CZ-4C R/B 3.8 17:38:53 10° WNW 17:43:55 28° NNW 17:49:33 10° NE
Cosmos 1515 Rocket 3.9 17:43:44 10° N 17:48:01 42° ENE 17:52:16 10° SE
Cosmos 1763 Rocket 4.1 17:43:31 10° S 17:48:17 37° ESE 17:53:02 10° NE
SKYMED 2 4.3 17:45:39 10° NNE 17:49:36 32° E 17:53:30 10° SSE
Cosmos 1726 3.1 17:46:30 10° NNE 17:49:42 26° ENE 17:52:53 10° SE
Cosmos 1634 Rocket 4.1 17:50:08 10° N 17:56:14 54° ENE 18:02:15 10° SSE
SMAP 3.9 17:54:00 10° S 17:58:34 56° W 18:03:11 10° NNW
NOAA 12 4.4 17:54:04 10° SE 17:58:57 42° ENE 18:03:53 10° N
Cosmos 2322 3.7 17:54:17 10° SSW 17:59:58 86° ESE 18:05:43 10° NNE
Thor Agena Rocket 3.5 17:55:09 10° NNE 18:00:29 79° ESE 18:05:42 10° SSW
SJ-6B 3.7 17:57:55 10° SE 18:01:28 30° ENE 18:05:05 10° N
Meteor 1-28 Rocket 4.1 17:59:54 16° NE 18:02:06 27° E 18:05:19 10° SSE
SPOT 3 Rocket 4.2 17:57:58 10° S 18:03:02 59° WSW 18:08:10 10° NNW
Orbus 7S? 4.2 18:02:31 10° NW 18:05:34 37° NNE 18:08:51 19° E
Cosmos 1151 Rocket 3.3 18:01:51 10° N 18:05:57 43° ENE 18:10:01 10° SSE
Cosmos 2151 3.9 18:04:00 10° SE 18:07:28 25° E 18:09:03 20° NE
Cosmos 1500 Rocket 4.0 18:03:48 10° SSE 18:07:50 39° E 18:11:54 10° NNE
SL-16 R/B 3.4 18:03:22 10° WSW 18:08:37 38° NW 18:13:55 10° NNE
Cosmos 1844 Rocket 2.8 18:06:26 10° NNW 18:12:09 79° WSW 18:17:47 10° SSE
Meteor 1-21 Rocket 4.3 18:06:33 10° S 18:12:29 87° E 18:18:24 10° NNE
Cosmos 1076 Rocket 4.3 18:08:39 10° SSW 18:12:48 53° WNW 18:17:00 10° N
Cosmos 1125 Rocket 3.5 18:09:09 10° NNW 18:14:20 59° ENE 18:19:28 10° SE
Cosmos 2333 4.3 18:09:02 10° S 18:14:28 54° ESE 18:18:52 16° NE
IDEFIX/ARIANE 42P 4.1 18:10:22 10° SSW 18:15:13 39° W 18:20:08 10° NNW
Cosmos 1814 Rocket 4.0 18:12:33 10° SSW 18:17:55 90° WNW 18:23:19 10° NNE
Resurs 01 Rocket 2.4 18:23:00 25° E 18:24:24 30° ENE 18:28:18 10° N
USA 215 3.9 18:18:52 10° SE 18:25:19 58° SW 18:31:47 10° WNW
ATLAS 3B R/B 4.1 18:19:37 10° WNW 18:26:00 30° NNW 18:31:00 14° NE
CZ-3A R/B 2.7 18:20:20 10° WNW 18:26:12 84° NNE 18:29:46 18° ESE
Cosmos 1980 4.4 18:21:50 10° SSE 18:26:46 31° ESE 18:28:28 26° ENE
Cosmos 2360 Rocket 2.7 18:22:01 10° SW 18:27:34 57° NW 18:33:08 10° NNE
Cosmos 1980 Rocket 4.4 18:25:56 10° WNW 18:29:20 16° NNW 18:32:45 10° N
Spot 2 Rocket 3.9 18:27:25 10° SE 18:32:04 39° ENE 18:36:43 10° N
Cosmos 2333 Rocket 2.6 18:29:32 10° S 18:34:47 41° ESE 18:36:58 29° ENE
NOSS 3-2 (A) 4.4 18:29:14 10° WSW 18:35:15 45° NNW 18:40:30 16° NE
Cosmos 2228 Rocket 4.1 18:32:04 10° NNW 18:36:19 48° W 18:40:34 10° SSW
Meteor 1-27 4.2 18:31:04 10° N 18:36:50 64° ENE 18:42:37 10° SSE
COSMO-SKYMED 1 2.5 18:33:23 10° NNE 18:37:46 86° WNW 18:42:07 10° SSW
NOSS 3-2 (C) 4.2 18:31:45 10° WSW 18:37:50 50° NW 18:43:01 17° NE
Timation 1 Rocket 4.5 18:32:35 10° NNW 18:38:28 51° NE 18:42:05 23° ESE
Cosmos 841 Rocket 3.4 18:34:55 10° SSW 18:40:12 82° ESE 18:44:09 18° NNE
NOSS 0 Rocket 4.2 18:35:05 10° S 18:40:55 44° ESE 18:43:28 30° ENE
Resurs 1-3 4.5 18:42:21 31° NE 18:42:21 31° NE 18:45:20 10° N
Transit 2A Rocket 4.4 18:37:17 10° NNW 18:41:41 62° NE 18:43:08 38° ESE
Molniya-1 4.4 18:40:17 10° SSW 18:43:23 62° SE 18:44:41 42° ENE
SL-14 R/B 3.2 18:42:04 10° S 18:45:54 59° E 18:46:31 51° NE
FENGYUN 3A 3.7 18:42:01 10° SE 18:47:12 53° ENE 18:52:26 10° N
Cosmos 332 Rocket 3.7 18:43:55 10° SSW 18:48:44 83° ESE 18:51:25 27° NNE
Cosmos 2279 Rocket 3.9 18:44:41 10° N 18:50:56 80° E 18:57:10 10° SSE
ATLAS 5 CENTAUR R/B 3.8 18:48:54 10° NW 18:52:54 20° N 18:54:12 19° NNE
Cosmos 2278 Rocket 2.2 18:47:51 10° NNW 18:53:35 82° WSW 18:59:15 10° SSE
Cosmos 2084 4.5 18:50:21 10° S 18:52:44 27° SSE 18:52:44 27° SSE
Cosmos 546 4.5 18:50:13 10° W 18:54:09 83° N 18:54:30 72° ENE
Cosmos 2322 Rocket 4.2 18:50:27 10° W 18:54:45 22° NW 18:59:03 10° N
Cosmos 2219 Rocket 2.1 18:50:13 10° SSW 18:55:50 73° ESE 18:58:28 33° NE
Lacrosse 4 Rocket 3.4 18:55:16 10° N 18:56:29 15° N 18:56:29 15° N
Lacrosse 5 rocket 1.0 18:58:42 10° WNW 19:02:29 90° W 19:02:29 90° W
METEOR-M 4.4 18:59:04 10° S 19:04:23 68° WSW 19:09:45 10° NNW
Cosmos 2180 Rocket 4.3 18:58:37 10° N 19:04:48 84° E 19:10:59 10° S
Cosmos 836 Rocket 4.4 18:59:44 10° SSW 19:04:58 85° ESE 19:07:13 36° NNE
Meteor 2-10 4.0 19:00:30 10° NNW 19:05:33 80° W 19:10:42 10° S
Cosmos 1300 4.1 19:08:26 10° NNW 19:12:02 39° W 19:15:37 10° SSW
ALOS 2.1 19:07:52 10° SSE 19:12:32 84° ENE 19:17:14 10° NNW
Cosmos 1943 Rocket 4.2 19:10:40 10° N 19:11:54 12° NNE 19:11:54 12° NNE
CENTAUR R/B 2.8 19:08:37 10° SW 19:14:54 72° NW 19:18:21 32° NE
COSMOS 2428 3.4 19:09:34 10° SW 19:15:10 53° NW 19:18:45 22° NNE
Nadezhda 4 Rocket 4.1 19:10:48 10° SSE 19:25:13 - NNE 19:16:27 51° ESE
Cosmos 44 3.9 19:13:53 10° SSW 19:17:58 44° SSE 19:17:58 44° SSE
Cosmos 371 Rocket 3.4 19:15:19 10° SSW 19:20:07 72° WNW 19:21:19 49° N
Cosmos 2237 Rocket 2.0 19:18:02 10° SSW 19:23:38 74° ESE 19:24:04 70° ENE
Cosmos 1726 4.3 19:21:47 10° NNW 19:25:01 27° W 19:28:13 10° SSW
Lacrosse 5 2.6 19:20:41 10° W 19:25:31 41° NNW 19:25:59 40° N
Cosmos 2369 Rocket 3.9 19:21:43 10° NNW 19:24:13 20° N 19:24:13 20° N
DNEPR-1 R/B 4.2 19:19:50 10° SSW 19:26:32 80° SE 19:27:16 68° ENE
SL-16 R/B 3.9 19:21:47 10° S 19:23:27 19° SSE 19:23:27 19° SSE
Cosmos 2058 3.5 19:24:43 10° SSW 19:28:10 54° WSW 19:28:10 54° WSW
Cosmos 2297 3.6 19:24:35 10° NNW 19:30:20 86° WSW 19:31:34 57° SSE
CZ-4C R/B 3.9 19:29:17 10° NW 19:34:31 26° N 19:35:01 26° NNE
Cosmos 44 Rocket 3.5 19:33:20 10° SW 19:37:59 72° WSW 19:37:59 72° WSW
Cosmos 540 Rocket 4.0 19:50:51 10° SW 19:55:42 55° WNW 19:55:42 55° WNW
Resurs 01 Rocket 3.1 20:00:34 35° WSW 20:00:48 35° W 20:04:55 10° NNW
Cosmos 1980 4.4 20:05:06 10° SW 20:10:23 51° WNW 20:10:23 51° WNW
Cosmos 2360 Rocket 4.5 20:09:24 10° WNW 20:12:51 16° NNW 20:14:56 14° N
ATLAS 3B R/B 4.1 20:12:57 10° NW 20:18:16 27° N 20:18:16 27° N
Cosmos 2333 Rocket 3.3 20:13:46 10° WSW 20:19:01 40° NW 20:19:01 40° NW
ATLAS 5 CENTAUR R/B 4.3 20:34:01 10° NW 20:35:46 19° NNW 20:35:46 19° NNW
Cosmos 2219 Rocket 4.0 20:35:40 10° W 20:40:14 26° NW 20:40:14 26° NW
CENTAUR R/B 4.2 21:00:54 10° W 21:05:33 30° NW 21:05:33 30° NW
Cosmos 2237 Rocket 4.4 21:03:37 10° W 21:05:58 20° WNW 21:05:58 20° WNW
